User: anonymous
Location: Newsoms
(36.6240°N, 77.1250°W)
Time: 22:03:34
(UTC-04:00)
Language:

BREEZE-M DEB (TANK) - Orbit

View from above orbital plane
View from above orbital plane
View from above satellite
View from above satellite

Ground track
Ground track

The orbit data is extracted from the following two-line orbital elements,

1 29649U 06056B   14263.10219156  .00004900  00000-0  63921-3 0   211
2 29649 049.4819 242.3364 5425937 259.4568 225.9701 04.94746121137932
Epoch (UTC): 20 September 2014 02:27:09
Eccentricity: 0.5425937
inclination: 49.4819°
perigee height: 276 km
apogee height: 16064 km
right ascension of ascending node: 242.3364°
argument of perigee: 259.4568°
revolutions per day: 4.94746121
mean anomaly at epoch: 225.9701°
orbit number at epoch: 13793

The dashed part of the orbit path shows where the satellite is in the earth's shadow,  

DLR